WAT2460 LPPT-LPPR

Flight info

Callsign WAT2460
Flight time 0h 41m
Altitude 22000
Route IXIDA DCT ABLEG
Aircraft A306/H-SDE3FGHIRWY/LB1

Departure

Time 2026-05-07 13:42
Airport Lisbon Humberto Delgado Airport (LPPT)

Arrival

Time 2026-05-07 14:23
Airport Francisco de Sá Carneiro Airport (LPPR)
Time Latitude Longitude Altitude Speed Heading
2026-05-07 13:21 38.77140 -9.13602 363 ft 0 kts 202°
2026-05-07 13:33 38.77154 -9.13595 364 ft 4 kts 204°
2026-05-07 13:33 38.77178 -9.13579 365 ft 4 kts 210°
2026-05-07 13:33 38.77201 -9.13561 364 ft 4 kts 220°
2026-05-07 13:33 38.77213 -9.13545 366 ft 4 kts 236°
2026-05-07 13:34 38.77222 -9.13525 364 ft 0 kts 259°
2026-05-07 13:37 38.77222 -9.13524 357 ft 0 kts 259°
2026-05-07 13:38 38.77222 -9.13525 357 ft 0 kts 259°
2026-05-07 13:38 38.77219 -9.13544 365 ft 4 kts 259°
2026-05-07 13:38 38.77210 -9.13601 359 ft 10 kts 259°
2026-05-07 13:39 38.77189 -9.13724 362 ft 17 kts 257°
2026-05-07 13:39 38.77163 -9.13867 360 ft 15 kts 245°
2026-05-07 13:39 38.77081 -9.13926 365 ft 13 kts 202°
2026-05-07 13:39 38.76997 -9.13971 359 ft 14 kts 202°
2026-05-07 13:40 38.76885 -9.14031 359 ft 21 kts 203°
2026-05-07 13:40 38.76743 -9.14107 363 ft 22 kts 202°
2026-05-07 13:40 38.76616 -9.14174 361 ft 15 kts 205°
2026-05-07 13:40 38.76609 -9.14286 360 ft 15 kts 292°
2026-05-07 13:41 38.76654 -9.14378 361 ft 9 kts
2026-05-07 13:41 38.76672 -9.14371 364 ft 0 kts 20°
2026-05-07 13:41 38.76696 -9.14359 358 ft 18 kts 20°
2026-05-07 13:41 38.77036 -9.14178 364 ft 86 kts 22°
2026-05-07 13:42 38.77777 -9.13780 365 ft 143 kts 22°
2026-05-07 13:42 38.78863 -9.13210 385 ft 192 kts 22°
2026-05-07 13:42 38.80141 -9.12527 978 ft 200 kts 20°
2026-05-07 13:42 38.81416 -9.11831 1904 ft 197 kts 20°
2026-05-07 13:43 38.82726 -9.11130 2664 ft 214 kts 19°
2026-05-07 13:43 38.84133 -9.10265 3190 ft 239 kts 28°
2026-05-07 13:43 38.85555 -9.08950 3425 ft 265 kts 36°
2026-05-07 13:43 38.87075 -9.07526 3786 ft 272 kts 33°
2026-05-07 13:44 38.88689 -9.06215 4566 ft 276 kts 31°
2026-05-07 13:44 38.90222 -9.04793 5587 ft 275 kts 41°
2026-05-07 13:44 38.91671 -9.03124 6548 ft 278 kts 44°
2026-05-07 13:44 38.93091 -9.01441 7427 ft 283 kts 44°
2026-05-07 13:45 38.94562 -8.99724 8345 ft 288 kts 44°
2026-05-07 13:45 38.96054 -8.97985 9295 ft 292 kts 44°
2026-05-07 13:45 38.97570 -8.96215 10169 ft 297 kts 44°
2026-05-07 13:45 38.99145 -8.94374 10601 ft 316 kts 43°
2026-05-07 13:46 39.00825 -8.92409 10915 ft 336 kts 43°
2026-05-07 13:46 39.02600 -8.90333 11230 ft 355 kts 43°
2026-05-07 13:46 39.04473 -8.88142 11538 ft 372 kts 43°
2026-05-07 13:46 39.06421 -8.85863 11970 ft 384 kts 43°
2026-05-07 13:47 39.08413 -8.83533 12557 ft 390 kts 43°
2026-05-07 13:47 39.10429 -8.81157 13228 ft 394 kts 43°
2026-05-07 13:47 39.12463 -8.78776 13936 ft 397 kts 42°
2026-05-07 13:47 39.14512 -8.76369 14543 ft 401 kts 41°
2026-05-07 13:48 39.16560 -8.73885 15123 ft 406 kts 44°
2026-05-07 13:48 39.18492 -8.71206 15717 ft 410 kts 47°
2026-05-07 13:48 39.20370 -8.68475 16338 ft 413 kts 47°
2026-05-07 13:48 39.22266 -8.65660 16976 ft 417 kts 47°
2026-05-07 13:49 39.24187 -8.62843 17605 ft 421 kts 47°
2026-05-07 13:49 39.26135 -8.59996 18184 ft 424 kts 47°
2026-05-07 13:49 39.28096 -8.57124 18694 ft 428 kts 47°
2026-05-07 13:49 39.30071 -8.54225 19168 ft 432 kts 47°
2026-05-07 13:50 39.31682 -8.51857 19550 ft 435 kts 47°
2026-05-07 13:50 39.33688 -8.48906 20029 ft 439 kts 46°
2026-05-07 13:50 39.35690 -8.45958 20490 ft 442 kts 46°
2026-05-07 13:50 39.37727 -8.42954 20936 ft 446 kts 46°
2026-05-07 13:51 39.39783 -8.39920 21391 ft 449 kts 46°
2026-05-07 13:51 39.41847 -8.36870 21773 ft 452 kts 46°
2026-05-07 13:51 39.43914 -8.33813 21863 ft 449 kts 46°
2026-05-07 13:51 39.45938 -8.30812 21864 ft 436 kts 46°
2026-05-07 13:52 39.47910 -8.27887 21873 ft 430 kts 46°
2026-05-07 13:52 39.49880 -8.24965 21872 ft 429 kts 46°
2026-05-07 13:52 39.51840 -8.22057 21875 ft 429 kts 45°
2026-05-07 13:52 39.53798 -8.19150 21867 ft 428 kts 46°
2026-05-07 13:53 39.55754 -8.16242 21867 ft 428 kts 45°
2026-05-07 13:53 39.57710 -8.13331 21867 ft 427 kts 46°
2026-05-07 13:53 39.59660 -8.10423 21869 ft 427 kts 45°
2026-05-07 13:53 39.61631 -8.07549 21864 ft 425 kts 42°
2026-05-07 13:54 39.63912 -8.05170 21862 ft 418 kts 27°
2026-05-07 13:54 39.66542 -8.03781 21871 ft 410 kts 10°
2026-05-07 13:54 39.69342 -8.03460 21867 ft 402 kts 353°
2026-05-07 13:54 39.72039 -8.04100 21876 ft 398 kts 342°
2026-05-07 13:55 39.74697 -8.05096 21869 ft 398 kts 341°
2026-05-07 13:55 39.77348 -8.06136 21869 ft 398 kts 341°
2026-05-07 13:55 39.80002 -8.07177 21863 ft 398 kts 341°
2026-05-07 13:55 39.82659 -8.08211 21865 ft 398 kts 341°
2026-05-07 13:56 39.85316 -8.09238 21863 ft 399 kts 341°
2026-05-07 13:56 39.87974 -8.10264 21869 ft 399 kts 341°
2026-05-07 13:56 39.90636 -8.11289 21866 ft 399 kts 341°
2026-05-07 13:56 39.93294 -8.12314 21871 ft 399 kts 341°
2026-05-07 13:57 39.95960 -8.13341 21868 ft 399 kts 341°
2026-05-07 13:57 39.98622 -8.14368 21869 ft 399 kts 341°
2026-05-07 13:57 40.01288 -8.15398 21869 ft 399 kts 341°
2026-05-07 13:57 40.03988 -8.16444 21877 ft 411 kts 341°
2026-05-07 13:58 40.06768 -8.17520 21878 ft 422 kts 341°
2026-05-07 13:58 40.09623 -8.18623 21875 ft 432 kts 341°
2026-05-07 13:58 40.12479 -8.19728 21876 ft 435 kts 341°
2026-05-07 13:58 40.15389 -8.20855 21876 ft 436 kts 341°
2026-05-07 13:59 40.18293 -8.21980 21872 ft 436 kts 341°
2026-05-07 13:59 40.21200 -8.23107 21873 ft 436 kts 341°
2026-05-07 13:59 40.24090 -8.24229 21851 ft 425 kts 341°
2026-05-07 13:59 40.26867 -8.25306 21870 ft 406 kts 341°
2026-05-07 14:00 40.29545 -8.26348 21876 ft 399 kts 341°
2026-05-07 14:00 40.32206 -8.27386 21878 ft 399 kts 341°
2026-05-07 14:00 40.34869 -8.28427 21884 ft 399 kts 341°
2026-05-07 14:00 40.37466 -8.29440 21845 ft 398 kts 341°
2026-05-07 14:01 40.40113 -8.30473 21343 ft 395 kts 341°
2026-05-07 14:01 40.42753 -8.31506 20600 ft 397 kts 342°
2026-05-07 14:01 40.45400 -8.32543 19963 ft 396 kts 342°
2026-05-07 14:01 40.48033 -8.33573 19399 ft 394 kts 342°
2026-05-07 14:02 40.50657 -8.34603 18834 ft 392 kts 342°
2026-05-07 14:02 40.53262 -8.35634 18218 ft 392 kts 342°
2026-05-07 14:02 40.55880 -8.36643 17617 ft 390 kts 343°
2026-05-07 14:02 40.58473 -8.37644 16973 ft 388 kts 341°
2026-05-07 14:03 40.61061 -8.38677 16362 ft 386 kts 342°
2026-05-07 14:03 40.63635 -8.39677 15736 ft 386 kts 342°
2026-05-07 14:03 40.65327 -8.40355 15426 ft 382 kts 341°
2026-05-07 14:03 40.68730 -8.41710 14591 ft 382 kts 342°
2026-05-07 14:04 40.71269 -8.42719 14052 ft 379 kts 341°
2026-05-07 14:04 40.73692 -8.44052 13390 ft 376 kts 333°
2026-05-07 14:04 40.76013 -8.45627 12678 ft 372 kts 330°
2026-05-07 14:04 40.77526 -8.46681 12119 ft 370 kts 330°
2026-05-07 14:05 40.80564 -8.48802 11034 ft 366 kts 331°
2026-05-07 14:05 40.82049 -8.49832 10471 ft 361 kts 331°
2026-05-07 14:05 40.84286 -8.51385 9624 ft 365 kts 331°
2026-05-07 14:05 40.87214 -8.53413 9268 ft 351 kts 331°
2026-05-07 14:06 40.89342 -8.54885 9069 ft 338 kts 331°
2026-05-07 14:06 40.90734 -8.55849 8933 ft 330 kts 331°
2026-05-07 14:06 40.93369 -8.57676 8736 ft 316 kts 331°
2026-05-07 14:06 40.94667 -8.58577 8646 ft 309 kts 331°
2026-05-07 14:07 40.96544 -8.59882 8465 ft 300 kts 331°
2026-05-07 14:07 40.98420 -8.61064 8118 ft 298 kts 340°
2026-05-07 14:07 41.00378 -8.61752 7742 ft 293 kts 347°
2026-05-07 14:07 41.02372 -8.62288 7202 ft 292 kts 348°
2026-05-07 14:08 41.04352 -8.62794 6536 ft 286 kts 349°
2026-05-07 14:08 41.06305 -8.63298 5597 ft 285 kts 348°
2026-05-07 14:08 41.08248 -8.63796 4765 ft 281 kts 348°
2026-05-07 14:08 41.10121 -8.64517 4601 ft 281 kts 332°
2026-05-07 14:09 41.11596 -8.66154 4608 ft 276 kts 305°
2026-05-07 14:09 41.12330 -8.68336 4522 ft 244 kts 277°
2026-05-07 14:09 41.12340 -8.70474 4156 ft 225 kts 261°
2026-05-07 14:09 41.12143 -8.72508 3593 ft 221 kts 259°
2026-05-07 14:10 41.11856 -8.74498 3095 ft 219 kts 247°
2026-05-07 14:10 41.10928 -8.76041 2922 ft 217 kts 213°
2026-05-07 14:10 41.09500 -8.76628 2904 ft 218 kts 182°
2026-05-07 14:10 41.07993 -8.76356 2906 ft 220 kts 165°
2026-05-07 14:11 41.06705 -8.75266 2901 ft 225 kts 133°
2026-05-07 14:11 41.06035 -8.73398 2907 ft 230 kts 102°
2026-05-07 14:11 41.05813 -8.71299 2917 ft 230 kts 102°
2026-05-07 14:11 41.05555 -8.69206 2900 ft 227 kts 101°
2026-05-07 14:12 41.05322 -8.67235 2897 ft 214 kts 101°
2026-05-07 14:12 41.05103 -8.65276 2903 ft 212 kts 95°
2026-05-07 14:12 41.05426 -8.63417 2900 ft 213 kts 59°
2026-05-07 14:12 41.06475 -8.62068 2904 ft 212 kts 25°
2026-05-07 14:13 41.07891 -8.61703 2901 ft 208 kts 351°
2026-05-07 14:13 41.09260 -8.62262 2899 ft 206 kts 334°
2026-05-07 14:13 41.10527 -8.63147 3018 ft 204 kts 327°
2026-05-07 14:13 41.11721 -8.64020 2820 ft 192 kts 328°
2026-05-07 14:14 41.12906 -8.64822 2476 ft 189 kts 334°
2026-05-07 14:14 41.14126 -8.65375 2264 ft 181 kts 343°
2026-05-07 14:14 41.15336 -8.65670 2033 ft 174 kts 348°
2026-05-07 14:14 41.16493 -8.65916 1856 ft 162 kts 346°
2026-05-07 14:15 41.17580 -8.66183 1670 ft 152 kts 344°
2026-05-07 14:15 41.18571 -8.66477 1617 ft 147 kts 343°
2026-05-07 14:15 41.19554 -8.66732 1447 ft 141 kts 344°
2026-05-07 14:15 41.20491 -8.66975 1121 ft 138 kts 344°
2026-05-07 14:16 41.21407 -8.67237 829 ft 133 kts 344°
2026-05-07 14:16 41.22308 -8.67475 595 ft 131 kts 343°
2026-05-07 14:16 41.23217 -8.67703 321 ft 136 kts 344°
2026-05-07 14:16 41.24108 -8.67953 225 ft 120 kts 346°
2026-05-07 14:17 41.24929 -8.68155 312 ft 121 kts 349°
2026-05-07 14:17 41.25784 -8.68289 836 ft 132 kts 350°
2026-05-07 14:17 41.26720 -8.68581 1083 ft 143 kts 326°
2026-05-07 14:17 41.27445 -8.69642 1644 ft 175 kts 298°
2026-05-07 14:18 41.27736 -8.71187 1732 ft 180 kts 262°
2026-05-07 14:18 41.27201 -8.72846 1922 ft 212 kts 233°
2026-05-07 14:18 41.26060 -8.74133 1692 ft 217 kts 208°
2026-05-07 14:18 41.24618 -8.74676 1783 ft 221 kts 181°
2026-05-07 14:19 41.23091 -8.74361 2028 ft 226 kts 164°
2026-05-07 14:19 41.21597 -8.73712 2004 ft 224 kts 166°
2026-05-07 14:19 41.20125 -8.73117 2062 ft 225 kts 165°
2026-05-07 14:19 41.18628 -8.72532 2359 ft 223 kts 166°
2026-05-07 14:20 41.17238 -8.71834 2268 ft 211 kts 150°
2026-05-07 14:20 41.16212 -8.70509 1940 ft 205 kts 126°
2026-05-07 14:20 41.15707 -8.68787 1625 ft 195 kts 95°
2026-05-07 14:20 41.15917 -8.67078 1387 ft 186 kts 62°
2026-05-07 14:21 41.16770 -8.65908 1111 ft 172 kts 19°
2026-05-07 14:21 41.17830 -8.65877 971 ft 145 kts 334°
2026-05-07 14:21 41.18749 -8.66493 1076 ft 149 kts 333°
2026-05-07 14:21 41.19773 -8.66834 919 ft 151 kts 347°
2026-05-07 14:22 41.20777 -8.67064 751 ft 143 kts 345°
2026-05-07 14:22 41.21746 -8.67338 584 ft 143 kts 346°
2026-05-07 14:22 41.22731 -8.67587 397 ft 144 kts 345°
2026-05-07 14:22 41.23709 -8.67840 246 ft 140 kts 345°
2026-05-07 14:23 41.24567 -8.68066 215 ft 113 kts 349°
2026-05-07 14:23 41.25237 -8.68240 185 ft 69 kts 349°
2026-05-07 14:23 41.25510 -8.68309 176 ft 24 kts 348°
2026-05-07 14:23 41.25603 -8.68266 174 ft 14 kts 68°
2026-05-07 14:24 41.25608 -8.68143 173 ft 14 kts 104°
2026-05-07 14:24 41.25534 -8.68088 172 ft 12 kts 167°
2026-05-07 14:24 41.25468 -8.68071 175 ft 7 kts 169°
2026-05-07 14:24 41.25430 -8.68061 178 ft 5 kts 169°
2026-05-07 14:25 41.25389 -8.68050 179 ft 7 kts 168°
2026-05-07 14:25 41.25336 -8.68035 181 ft 9 kts 169°
2026-05-07 14:25 41.25263 -8.68017 184 ft 11 kts 168°
2026-05-07 14:25 41.25189 -8.67997 188 ft 11 kts 168°
2026-05-07 14:26 41.25109 -8.67975 191 ft 13 kts 168°
2026-05-07 14:26 41.25015 -8.67951 204 ft 15 kts 169°
2026-05-07 14:26 41.24913 -8.67922 205 ft 16 kts 164°
2026-05-07 14:26 41.24808 -8.67855 207 ft 15 kts 156°
2026-05-07 14:27 41.24714 -8.67817 218 ft 13 kts 168°
2026-05-07 14:27 41.24631 -8.67794 217 ft 12 kts 168°
2026-05-07 14:27 41.24546 -8.67769 223 ft 13 kts 167°
2026-05-07 14:27 41.24450 -8.67749 225 ft 13 kts 170°
2026-05-07 14:28 41.24362 -8.67719 230 ft 13 kts 168°
2026-05-07 14:28 41.24283 -8.67676 238 ft 12 kts 136°
2026-05-07 14:28 41.24233 -8.67583 240 ft 12 kts 125°
2026-05-07 14:28 41.24189 -8.67515 243 ft 4 kts 136°
2026-05-07 14:29 41.24178 -8.67493 243 ft 2 kts 111°
2026-05-07 14:29 41.24177 -8.67456 243 ft 7 kts 86°
2026-05-07 14:29 41.24183 -8.67407 243 ft 2 kts 78°
2026-05-07 14:29 41.24185 -8.67392 243 ft 3 kts 81°
2026-05-07 14:30 41.24189 -8.67367 243 ft 2 kts 78°
2026-05-07 14:30 41.24189 -8.67366 243 ft 0 kts 78°